Location: Cabeza Gorda
(40.0667°N, 4.9667°W)
Time: 19:54:53
(UTC+00:00)

Cosmos 1656 Rocket - Pass Details

Date: 15 January 2026
Orbit: 794 x 844 km, 71.1° (Epoch: 10 February)

Event Time Altitude Azimuth Distance (km) Brightness Sun altitude
Rises 07:00:49 0° 201° (SSW) 3,383 6.9 -7.7°
Reaches altitude 10° 07:03:15 10° 201° (SSW) 2,454 6.1 -7.3°
Maximum altitude 07:08:54 89° 114° (ESE) 849 3.8 -6.2°
Drops below altitude 10° 07:14:35 10° 23° (NNE) 2,463 6.1 -5.2°
Sets 07:17:01 0° 24° (NNE) 3,397 6.9 -4.8°
